User: anonymous   Login
Location: Mount Graham
(32.7016°N, 109.8912°W)
Time: 12:18:54
(UTC-07:00)
Language:

Cosmos 1340 - Orbit

View from above orbital plane
View from above orbital plane
View from above satellite
View from above satellite

Ground track
Ground track

The orbit data is extracted from the following two-line orbital elements,

1 13067U 82013A   15059.90127334  .00005188  00000-0  27284-3 0  9998
2 13067 081.1884 030.7143 0005050 100.6211 289.9222 15.15490556800494
Epoch (UTC): 28 February 2015 21:37:50
Eccentricity: 0.0005050
inclination: 81.1884°
perigee height: 516 km
apogee height: 523 km
right ascension of ascending node: 30.7143°
argument of perigee: 100.6211°
revolutions per day: 15.15490556
mean anomaly at epoch: 289.9222°
orbit number at epoch: 80049

The dashed part of the orbit path shows where the satellite is in the earth's shadow,  

DLR